M I D A S
Marine Information and Data Acquisition System
Tripno 401 of the Zeeleeuw from 2002-10-30 04:17:05 to 2002-10-30 16:15:50
Back to CruiseResearch ActivitiesStationsMapUnderway DataData graphs

EquipmentUnitsComment
TimeDGPSUTC
LatitudeDGPSDM.mWGS84
LongitudeDGPSDM.mWGS84
TemperatureSBE03/SBE38deg celciusITS90
ConductivitySBE21S/mITS90
SalinitySBE21 Practical Salinity Units
ChlorophylAChelsea fluorimeterg/lCalibrated in Aceton
Missing or incorrect values are displayed as -999
Sea surface data collected by the RV Zeeleeuw from 2002-10-30 04:17:05 to 2002-10-30 16:15:50
                                                                                    Next 1000 lines
Time Latitude Longitude Temperature Conductivity Salinity ChlorophylA
2002-10-30 04:17:13 51°13.67 2°55.899 17.748361 0.105118 0.620506  
2002-10-30 04:17:17 51°13.67 2°55.894 17.748821 0.105118 0.620506  
2002-10-30 04:17:22 51°13.67 2°55.887 17.748988 0.105118 0.620527  
2002-10-30 04:17:26 51°13.67 2°55.882 17.748988 0.105118 0.620527  
2002-10-30 04:17:33 51°13.671 2°55.873 17.749197 0.105118 0.620527  
2002-10-30 04:17:37 51°13.671 2°55.868 17.749114 0.105118 0.620538  
2002-10-30 04:17:42 51°13.671 2°55.862 17.748821 0.105118 0.620549  
2002-10-30 04:17:47 51°13.671 2°55.857 17.750117 0.105118 0.62056  
2002-10-30 04:17:53 51°13.671 2°55.85 17.750869 0.105118 0.620549  
2002-10-30 04:17:57 51°13.671 2°55.846 17.750869 0.105118 0.620549  
2002-10-30 04:18:02 51°13.671 2°55.84 17.75183 0.105118 0.62056  
2002-10-30 04:18:06 51°13.671 2°55.836 17.75137 0.105118 0.620549  
2002-10-30 04:18:12 51°13.671 2°55.83 17.751621 0.105118 0.620538  
2002-10-30 04:18:17 51°13.671 2°55.826 17.752666 0.105118 0.620538  
2002-10-30 04:18:22 51°13.671 2°55.821 17.752206 0.105118 0.620527  
2002-10-30 04:18:26 51°13.671 2°55.817 17.752206 0.105118 0.620527  
2002-10-30 04:18:32 51°13.671 2°55.812 17.752582 0.105118 0.620527  
2002-10-30 04:18:37 51°13.671 2°55.808 17.753836 0.105118 0.620538  
2002-10-30 04:18:42 51°13.671 2°55.803 17.754128 0.105118 0.620527  
2002-10-30 04:18:46 51°13.671 2°55.8 17.754212 0.105118 0.620538  
2002-10-30 04:18:52 51°13.67 2°55.795 17.754212 0.105118 0.620527  
2002-10-30 04:18:56 51°13.67 2°55.792 17.754212 0.105118 0.620527  
2002-10-30 04:19:02 51°13.67 2°55.788 17.75534 0.105118 0.620517  
2002-10-30 04:19:07 51°13.67 2°55.787 17.752331 0.105118 0.620517  
2002-10-30 04:19:12 51°13.671 2°55.787 17.741716 0.105118 0.620517  
2002-10-30 04:19:17 51°13.673 2°55.788 17.746146 0.105118 0.620517  
2002-10-30 04:19:22 51°13.675 2°55.791 17.745979 0.105118 0.620527  
2002-10-30 04:19:26 51°13.677 2°55.792 17.745979 0.105118 0.620527  
2002-10-30 04:19:32 51°13.68 2°55.794 17.747107 0.105118 0.620527  
2002-10-30 04:19:37 51°13.684 2°55.796 17.752791 0.105118 0.620538  
2002-10-30 04:19:41 51°13.687 2°55.796 17.753042 0.105118 0.620538  
2002-10-30 04:19:46 51°13.691 2°55.796 17.752791 0.105118 0.620538  
2002-10-30 04:19:52 51°13.697 2°55.796 17.75346 0.105118 0.620538  
2002-10-30 04:19:57 51°13.701 2°55.794 17.75346 0.105118 0.620538  
2002-10-30 04:20:02 51°13.706 2°55.791 17.753 0.105118 0.620527  
2002-10-30 04:20:07 51°13.711 2°55.788 17.753627 0.105118 0.620517  
2002-10-30 04:20:12 51°13.716 2°55.783 17.75346 0.105118 0.620517  
2002-10-30 04:20:17 51°13.72 2°55.777 17.758182 0.105118 0.620506  
2002-10-30 04:20:22 51°13.724 2°55.772 17.760898 0.105118 0.620473  
2002-10-30 04:20:26 51°13.727 2°55.768 17.760898 0.105118 0.620473  
2002-10-30 04:20:32 51°13.731 2°55.762 17.736157 0.105118 0.620451  
2002-10-30 04:20:37 51°13.734 2°55.758 17.752499 0.105118 0.62044  
2002-10-30 04:20:42 51°13.737 2°55.754 17.753042 0.105118 0.620418  
2002-10-30 04:20:45 51°13.738 2°55.751 17.754672 0.105118 0.620418  
2002-10-30 04:20:52 51°13.741 2°55.747 17.754839 0.105118 0.620407  
2002-10-30 04:20:57 51°13.742 2°55.743 17.754839 0.105118 0.620407  
2002-10-30 04:21:01 51°13.743 2°55.741 17.755507 0.105222 0.621058  
2002-10-30 04:21:06 51°13.745 2°55.737 17.755257 0.105118 0.620429  
2002-10-30 04:21:12 51°13.746 2°55.733 17.755633 0.105118 0.62044  
2002-10-30 04:21:17 51°13.748 2°55.73 17.756469 0.105118 0.620451  
2002-10-30 04:21:22 51°13.749 2°55.727 17.757889 0.105118 0.620473  
2002-10-30 04:21:26 51°13.75 2°55.725 17.757889 0.105118 0.620473  
2002-10-30 04:21:32 51°13.751 2°55.721 17.758349 0.105222 0.621113  
2002-10-30 04:21:37 51°13.752 2°55.718 17.759561 0.105118 0.620484  
2002-10-30 04:21:42 51°13.753 2°55.715 17.759477 0.105222 0.621135  
2002-10-30 04:21:46 51°13.754 2°55.713 17.759101 0.105118 0.620506  
2002-10-30 04:21:52 51°13.755 2°55.709 17.759477 0.105118 0.620495  
2002-10-30 04:21:57 51°13.756 2°55.706 17.759477 0.105118 0.620495  
2002-10-30 04:22:02 51°13.757 2°55.704 17.760062 0.105118 0.620495  
2002-10-30 04:22:06 51°13.758 2°55.702 17.760814 0.105222 0.621135  
2002-10-30 04:22:12 51°13.759 2°55.699 17.761399 0.105222 0.621124  
2002-10-30 04:22:17 51°13.76 2°55.696 17.761107 0.105222 0.621113  
2002-10-30 04:22:22 51°13.761 2°55.694 17.761274 0.105222 0.621113  
2002-10-30 04:22:26 51°13.762 2°55.692 17.761274 0.105222 0.621113  
2002-10-30 04:22:32 51°13.763 2°55.689 17.76211 0.105222 0.621113  
2002-10-30 04:22:37 51°13.764 2°55.687 17.762528 0.105222 0.621102  
2002-10-30 04:22:42 51°13.765 2°55.685 17.763154 0.105222 0.621102  
2002-10-30 04:22:47 51°13.766 2°55.683 17.76353 0.105118 0.620473  
2002-10-30 04:22:50 51°13.767 2°55.682 17.765369 0.105118 0.620484  
2002-10-30 04:22:57 51°13.768 2°55.679 17.765369 0.105118 0.620484  
2002-10-30 04:23:02 51°13.769 2°55.678 17.76658 0.105118 0.620495  
2002-10-30 04:23:06 51°13.769 2°55.677 17.769589 0.105118 0.620495  
2002-10-30 04:23:12 51°13.77 2°55.676 17.768461 0.105222 0.621135  
2002-10-30 04:23:17 51°13.77 2°55.676 17.76867 0.105222 0.621124  
2002-10-30 04:23:22 51°13.769 2°55.677 17.773934 0.105222 0.621113  
2002-10-30 04:23:26 51°13.769 2°55.678 17.773934 0.105222 0.621113  
2002-10-30 04:23:32 51°13.768 2°55.68 17.77009 0.105222 0.621113  
2002-10-30 04:23:37 51°13.767 2°55.681 17.768252 0.105222 0.621113  
2002-10-30 04:23:42 51°13.766 2°55.683 17.769672 0.105118 0.620473  
2002-10-30 04:23:47 51°13.765 2°55.684 17.771761 0.105118 0.620473  
2002-10-30 04:23:53 51°13.764 2°55.686 17.773307 0.105118 0.620473  
2002-10-30 04:23:57 51°13.763 2°55.686 17.773307 0.105118 0.620473  
2002-10-30 04:24:02 51°13.762 2°55.688 17.772263 0.105118 0.620473  
2002-10-30 04:24:07 51°13.761 2°55.689 17.772722 0.105118 0.620473  
2002-10-30 04:24:13 51°13.761 2°55.69 17.773767 0.105222 0.621113  
2002-10-30 04:24:18 51°13.76 2°55.691 17.774226 0.105222 0.621113  
2002-10-30 04:24:22 51°13.759 2°55.692 17.774059 0.105118 0.620473  
2002-10-30 04:24:27 51°13.759 2°55.693 17.774059 0.105118 0.620473  
2002-10-30 04:24:32 51°13.758 2°55.694 17.774143 0.105222 0.621113  
2002-10-30 04:24:37 51°13.758 2°55.695 17.774059 0.105118 0.620473  
2002-10-30 04:24:42 51°13.757 2°55.695 17.775103 0.105118 0.620473  
2002-10-30 04:24:46 51°13.756 2°55.696 17.774811 0.105222 0.621102  
2002-10-30 04:24:52 51°13.756 2°55.697 17.775646 0.105118 0.620473  
2002-10-30 04:24:57 51°13.755 2°55.697 17.775646 0.105118 0.620473  
2002-10-30 04:25:01 51°13.755 2°55.697 17.776983 0.105222 0.621102  
2002-10-30 04:25:06 51°13.754 2°55.698 17.777819 0.105222 0.621102  
2002-10-30 04:25:12 51°13.753 2°55.698 17.7769 0.105222 0.621102  
2002-10-30 04:25:17 51°13.753 2°55.698 17.777819 0.105222 0.621102  
2002-10-30 04:25:22 51°13.752 2°55.699 17.776858 0.105222 0.621102  
2002-10-30 04:25:26 51°13.752 2°55.699 17.776858 0.105222 0.621102  
2002-10-30 04:25:32 51°13.751 2°55.699 17.776983 0.105222 0.621102  
2002-10-30 04:25:37 51°13.75 2°55.699 17.778028 0.105222 0.621102  
2002-10-30 04:25:42 51°13.75 2°55.699 17.778654 0.105222 0.621091  
2002-10-30 04:25:46 51°13.75 2°55.699 17.778863 0.105118 0.620451  
2002-10-30 04:25:49 51°13.749 2°55.699 17.780367 0.105118 0.620451  
2002-10-30 04:25:57 51°13.749 2°55.7 17.780367 0.105118 0.620451  
2002-10-30 04:26:01 51°13.749 2°55.7 17.779991 0.105222 0.621102  
2002-10-30 04:26:06 51°13.748 2°55.7 17.7802 0.105222 0.621091  
2002-10-30 04:26:12 51°13.748 2°55.7 17.780659 0.105118 0.620451  
2002-10-30 04:26:17 51°13.748 2°55.701 17.78162 0.105222 0.621102  
2002-10-30 04:26:22 51°13.748 2°55.701 17.782456 0.105222 0.621102  
2002-10-30 04:26:26 51°13.747 2°55.701 17.782456 0.105222 0.621102  
2002-10-30 04:26:32 51°13.747 2°55.701 17.782999 0.105222 0.621102  
2002-10-30 04:26:37 51°13.747 2°55.701 17.784168 0.105222 0.621113  
2002-10-30 04:26:42 51°13.747 2°55.701 17.784335 0.105222 0.621102  
2002-10-30 04:26:46 51°13.747 2°55.701 17.78538 0.105222 0.621113  
2002-10-30 04:26:52 51°13.746 2°55.701 17.784544 0.105118 0.620473  
2002-10-30 04:26:56 51°13.746 2°55.701 17.784544 0.105118 0.620473  
2002-10-30 04:27:01 51°13.746 2°55.701 17.785296 0.105222 0.621113  
2002-10-30 04:27:05 51°13.746 2°55.701 17.786424 0.105222 0.621113  
2002-10-30 04:27:12 51°13.746 2°55.701 17.787677 0.105222 0.621102  
2002-10-30 04:27:16 51°13.746 2°55.701 17.787928 0.105118 0.620462  
2002-10-30 04:27:22 51°13.746 2°55.701 17.788888 0.105118 0.620473  
2002-10-30 04:27:26 51°13.746 2°55.701 17.788888 0.105118 0.620473  
2002-10-30 04:27:32 51°13.746 2°55.701 17.789431 0.105222 0.621113  
2002-10-30 04:27:37 51°13.746 2°55.7 17.789348 0.105118 0.620473  
2002-10-30 04:27:42 51°13.746 2°55.7 17.790684 0.105222 0.621113  
2002-10-30 04:27:46 51°13.746 2°55.7 17.790851 0.105118 0.620484  
2002-10-30 04:27:52 51°13.746 2°55.7 17.790851 0.105222 0.621113  
2002-10-30 04:27:57 51°13.746 2°55.7 17.790851 0.105222 0.621113  
2002-10-30 04:28:02 51°13.746 2°55.699 17.789974 0.105118 0.620484  
2002-10-30 04:28:06 51°13.746 2°55.699 17.790559 0.105118 0.620484  
2002-10-30 04:28:12 51°13.746 2°55.699 17.790601 0.105118 0.620484  
2002-10-30 04:28:16 51°13.746 2°55.699 17.791144 0.105222 0.621135  
2002-10-30 04:28:22 51°13.746 2°55.699 17.791645 0.105222 0.621135  
2002-10-30 04:28:26 51°13.746 2°55.698 17.791645 0.105222 0.621135  
2002-10-30 04:28:32 51°13.746 2°55.698 17.792564 0.105222 0.621135  
2002-10-30 04:28:36 51°13.746 2°55.698 17.793608 0.105222 0.621135  
2002-10-30 04:28:41 51°13.747 2°55.698 17.793483 0.105222 0.621135  
2002-10-30 04:28:50 51°13.747 2°55.698 17.793023 0.105118 0.620495  
2002-10-30 04:28:54 51°13.747 2°55.698 17.793775 0.105118 0.620506  
2002-10-30 04:29:01 51°13.747 2°55.698 17.79532 0.105222 0.621146  
2002-10-30 04:29:06 51°13.747 2°55.698 17.797116 0.105222 0.621157  
2002-10-30 04:29:10 51°13.748 2°55.698 17.797993 0.105118 0.620517  
2002-10-30 04:29:14 51°13.748 2°55.697 17.798912 0.105222 0.621157  
2002-10-30 04:29:21 51°13.748 2°55.697 17.798912 0.105222 0.621157  
2002-10-30 04:29:25 51°13.748 2°55.697 17.799622 0.105222 0.621168  
2002-10-30 04:29:30 51°13.748 2°55.697 17.800039 0.105118 0.620538  
2002-10-30 04:29:34 51°13.748 2°55.697 17.799998 0.105222 0.621179  
2002-10-30 04:29:41 51°13.748 2°55.697 17.800415 0.105222 0.621168  
2002-10-30 04:29:45 51°13.749 2°55.697 17.800791 0.105118 0.620538  
2002-10-30 04:29:50 51°13.749 2°55.696 17.800791 0.105118 0.620538  
2002-10-30 04:29:56 51°13.749 2°55.696 17.800499 0.105222 0.62119  
2002-10-30 04:30:01 51°13.749 2°55.696 17.801251 0.105118 0.620538  
2002-10-30 04:30:05 51°13.749 2°55.696 17.802587 0.105118 0.620549  
2002-10-30 04:30:11 51°13.749 2°55.695 17.80409 0.105222 0.62119  
2002-10-30 04:30:14 51°13.749 2°55.695 17.807473 0.105118 0.62056  
2002-10-30 04:30:21 51°13.749 2°55.695 17.805134 0.105222 0.621201  
2002-10-30 04:30:26 51°13.749 2°55.694 17.805134 0.105222 0.621201  
2002-10-30 04:30:31 51°13.749 2°55.694 17.805886 0.105118 0.620549  
2002-10-30 04:30:35 51°13.749 2°55.694 17.806804 0.105222 0.621201  
2002-10-30 04:30:41 51°13.749 2°55.693 17.807932 0.105222 0.621201  
2002-10-30 04:30:45 51°13.749 2°55.693 17.808976 0.105118 0.620571  
2002-10-30 04:30:51 51°13.75 2°55.693 17.808976 0.105118 0.620571  
2002-10-30 04:30:54 51°13.75 2°55.692 17.809477 0.105118 0.620571  
2002-10-30 04:31:01 51°13.75 2°55.692 17.810521 0.105118 0.620582  
2002-10-30 04:31:05 51°13.75 2°55.692 17.810897 0.105118 0.620582  
2002-10-30 04:31:10 51°13.75 2°55.691 17.811732 0.105118 0.620582  
2002-10-30 04:31:14 51°13.751 2°55.691 17.812358 0.105118 0.620582  
2002-10-30 04:31:21 51°13.751 2°55.691 17.812358 0.105118 0.620582  
2002-10-30 04:31:26 51°13.751 2°55.69 17.812358 0.105118 0.620582  
2002-10-30 04:31:30 51°13.751 2°55.69 17.812066 0.105118 0.620582  
2002-10-30 04:31:36 51°13.751 2°55.69 17.812066 0.105118 0.620593  
2002-10-30 04:31:41 51°13.752 2°55.689 17.813026 0.105118 0.620582  
2002-10-30 04:31:45 51°13.752 2°55.689 17.813527 0.105118 0.620593  
2002-10-30 04:31:51 51°13.752 2°55.689 17.813527 0.105118 0.620593  
2002-10-30 04:31:54 51°13.752 2°55.689 17.814112 0.105118 0.620593  
2002-10-30 04:32:01 51°13.753 2°55.688 17.814947 0.105118 0.620593  
2002-10-30 04:32:06 51°13.753 2°55.688 17.815072 0.105222 0.621233  
2002-10-30 04:32:11 51°13.753 2°55.687 17.815698 0.105118 0.620593  
2002-10-30 04:32:14 51°13.754 2°55.687 17.816074 0.105118 0.620593  
2002-10-30 04:32:21 51°13.754 2°55.686 17.816074 0.105118 0.620593  
2002-10-30 04:32:26 51°13.754 2°55.686 17.817995 0.105222 0.621244  
2002-10-30 04:32:30 51°13.754 2°55.686 17.818579 0.105118 0.620593  
2002-10-30 04:32:34 51°13.754 2°55.685 17.819665 0.105118 0.620604  
2002-10-30 04:32:41 51°13.755 2°55.685 17.821168 0.105118 0.620604  
2002-10-30 04:32:45 51°13.755 2°55.684 17.821877 0.105118 0.620615  
2002-10-30 04:32:51 51°13.755 2°55.684 17.821877 0.105118 0.620615  
2002-10-30 04:32:56 51°13.755 2°55.683 17.822086 0.105118 0.620604  
2002-10-30 04:33:01 51°13.755 2°55.683 17.822253 0.105118 0.620615  
2002-10-30 04:33:05 51°13.756 2°55.683 17.823631 0.105118 0.620626  
2002-10-30 04:33:09 51°13.756 2°55.683 17.823464 0.105118 0.620626  
2002-10-30 04:33:14 51°13.756 2°55.682 17.8248 0.105118 0.620626  
2002-10-30 04:33:21 51°13.756 2°55.682 17.82409 0.105118 0.620637  
2002-10-30 04:33:26 51°13.757 2°55.681 17.82409 0.105118 0.620637  
2002-10-30 04:33:30 51°13.757 2°55.681 17.825968 0.105118 0.620648  
2002-10-30 04:33:34 51°13.757 2°55.681 17.828473 0.105118 0.620637  
2002-10-30 04:33:41 51°13.758 2°55.68 17.828181 0.105118 0.620648  
2002-10-30 04:33:45 51°13.758 2°55.68 17.829475 0.105118 0.620637  
2002-10-30 04:33:50 51°13.758 2°55.68 17.829475 0.105118 0.620637  
2002-10-30 04:33:54 51°13.758 2°55.68 17.829016 0.105118 0.620648  
2002-10-30 04:34:01 51°13.759 2°55.679 17.830644 0.105118 0.620648  
2002-10-30 04:34:06 51°13.759 2°55.679 17.831353 0.105118 0.620648  
2002-10-30 04:34:09 51°13.759 2°55.679 17.83223 0.105118 0.620648  
2002-10-30 04:34:21 51°13.76 2°55.678 17.831395 0.105118 0.620659  
2002-10-30 04:34:26 51°13.76 2°55.677 17.832898 0.105118 0.620659  
2002-10-30 04:34:30 51°13.76 2°55.677 17.835528 0.105118 0.62067  
2002-10-30 04:34:34 51°13.761 2°55.676 17.834943 0.105118 0.62067  
2002-10-30 04:34:41 51°13.761 2°55.675 17.836362 0.105118 0.62067  
2002-10-30 04:34:45 51°13.761 2°55.675 17.838074 0.105118 0.620648  
2002-10-30 04:34:50 51°13.761 2°55.674 17.838074 0.105118 0.620648  
2002-10-30 04:34:55 51°13.762 2°55.674 17.838533 0.105118 0.620659  
2002-10-30 04:35:01 51°13.762 2°55.673 17.837322 0.105118 0.620659  
2002-10-30 04:35:06 51°13.762 2°55.673 17.838157 0.105118 0.62067  
2002-10-30 04:35:10 51°13.762 2°55.672 17.839493 0.105118 0.62067  
2002-10-30 04:35:14 51°13.763 2°55.672 17.840703 0.105118 0.620659  
2002-10-30 04:35:21 51°13.763 2°55.671 17.841454 0.105118 0.62067  
2002-10-30 04:35:25 51°13.763 2°55.671 17.841454 0.105118 0.62067  
2002-10-30 04:35:30 51°13.764 2°55.67 17.841454 0.105118 0.620659  
2002-10-30 04:35:34 51°13.764 2°55.67 17.843416 0.105118 0.62067  
2002-10-30 04:35:41 51°13.765 2°55.669 17.844292 0.105118 0.62067  
2002-10-30 04:35:45 51°13.765 2°55.668 17.846922 0.105118 0.62067  
2002-10-30 04:35:50 51°13.765 2°55.668 17.846922 0.105118 0.62067  
2002-10-30 04:35:54 51°13.766 2°55.667 17.849467 0.105118 0.62067  
2002-10-30 04:36:01 51°13.766 2°55.666 17.849384 0.105118 0.62067  
2002-10-30 04:36:06 51°13.767 2°55.666 17.848549 0.105118 0.62067  
2002-10-30 04:36:10 51°13.767 2°55.665 17.849551 0.105118 0.62067  
2002-10-30 04:36:14 51°13.767 2°55.665 17.849467 0.105118 0.620681  
2002-10-30 04:36:21 51°13.768 2°55.664 17.85001 0.105118 0.620681  
2002-10-30 04:36:25 51°13.768 2°55.664 17.85001 0.105118 0.620681  
2002-10-30 04:36:30 51°13.768 2°55.663 17.850302 0.105118 0.620681  
2002-10-30 04:36:36 51°13.769 2°55.663 17.85097 0.105118 0.620681  
2002-10-30 04:36:41 51°13.769 2°55.662 17.851053 0.105118 0.620681  
2002-10-30 04:36:45 51°13.77 2°55.662 17.851178 0.105118 0.620681  
2002-10-30 04:36:50 51°13.771 2°55.661 17.851178 0.105118 0.620681  
2002-10-30 04:36:56 51°13.772 2°55.66 17.851137 0.105118 0.620681  
2002-10-30 04:37:01 51°13.773 2°55.659 17.852555 0.105118 0.620681  
2002-10-30 04:37:05 51°13.774 2°55.658 17.852931 0.105118 0.620681  
2002-10-30 04:37:10 51°13.775 2°55.656 17.853807 0.105118 0.620681  
2002-10-30 04:37:14 51°13.776 2°55.655 17.854183 0.105118 0.620681  
2002-10-30 04:37:21 51°13.779 2°55.653 17.854183 0.105118 0.620681  
2002-10-30 04:37:26 51°13.782 2°55.651 17.851596 0.105118 0.620681  
2002-10-30 04:37:30 51°13.784 2°55.65 17.85314 0.105118 0.620692  
2002-10-30 04:37:34 51°13.787 2°55.648 17.853974 0.105118 0.620681  
2002-10-30 04:37:41 51°13.793 2°55.644 17.854266 0.105118 0.620692  
2002-10-30 04:37:45 51°13.797 2°55.641 17.855017 0.105118 0.620692  
2002-10-30 04:37:51 51°13.803 2°55.637 17.855017 0.105118 0.620692  
2002-10-30 04:37:56 51°13.809 2°55.632 17.855769 0.105118 0.620681  
2002-10-30 04:38:01 51°13.815 2°55.628 17.856311 0.105118 0.620681  
2002-10-30 04:38:05 51°13.82 2°55.624 17.860275 0.105118 0.620692  
2002-10-30 04:38:11 51°13.827 2°55.619 17.861986 0.105118 0.620681  
2002-10-30 04:38:14 51°13.831 2°55.616 17.86499 0.105118 0.620692  
2002-10-30 04:38:21 51°13.841 2°55.61 17.86499 0.105118 0.620692  
2002-10-30 04:38:25 51°13.847 2°55.606 17.8667 0.105118 0.620681  
2002-10-30 04:38:30 51°13.854 2°55.602 17.864406 0.105118 0.620692  
2002-10-30 04:38:34 51°13.86 2°55.598 17.864781 0.105118 0.620692  
2002-10-30 04:38:41 51°13.87 2°55.591 17.866784 0.105118 0.620692  
2002-10-30 04:38:45 51°13.876 2°55.586 17.868453 0.105118 0.620692  
2002-10-30 04:38:50 51°13.884 2°55.581 17.868453 0.105118 0.620692  
2002-10-30 04:38:54 51°13.891 2°55.577 17.868661 0.105118 0.620692  
2002-10-30 04:39:01 51°13.902 2°55.57 17.868536 0.105118 0.620692  
2002-10-30 04:39:06 51°13.91 2°55.564 17.869245 0.105118 0.620692  
2002-10-30 04:39:09 51°13.915 2°55.561 17.869245 0.105118 0.620692  
2002-10-30 04:39:14 51°13.923 2°55.555 17.870622 0.105118 0.620692  
2002-10-30 04:39:21 51°13.935 2°55.548 17.870622 0.105118 0.620692  
2002-10-30 04:39:25 51°13.942 2°55.545 17.873083 0.105118 0.620692  
2002-10-30 04:39:30 51°13.95 2°55.539 17.873626 0.105118 0.620703  
2002-10-30 04:39:36 51°13.96 2°55.533 17.875127 0.105118 0.620692  
2002-10-30 04:39:41 51°13.969 2°55.527 17.87592 0.105118 0.620703  
2002-10-30 04:39:45 51°13.976 2°55.523 17.876087 0.105118 0.620703  
2002-10-30 04:39:50 51°13.985 2°55.517 17.876087 0.105118 0.620703  
2002-10-30 04:39:56 51°13.995 2°55.51 17.876087 0.105118 0.620703  
2002-10-30 04:40:01 51°14.004 2°55.504 17.873083 0.105118 0.620703  
2002-10-30 04:40:05 51°14.011 2°55.499 17.877422 0.105118 0.620703  
2002-10-30 04:40:11 51°14.022 2°55.491 17.877964 0.105118 0.620703  
2002-10-30 04:40:16 51°14.031 2°55.485 17.87713 0.105118 0.620703  
2002-10-30 04:40:21 51°14.04 2°55.478 17.87713 0.105118 0.620703  
2002-10-30 04:40:25 51°14.047 2°55.472 17.880717 0.105118 0.620714  
2002-10-30 04:40:30 51°14.057 2°55.465 17.882302 0.105118 0.620714  
2002-10-30 04:40:34 51°14.064 2°55.46 17.882469 0.105118 0.620703  
2002-10-30 04:40:41 51°14.078 2°55.45 17.881843 0.105118 0.620714  
2002-10-30 04:40:46 51°14.087 2°55.443 17.883512 0.105118 0.620725  
2002-10-30 04:40:51 51°14.097 2°55.435 17.883512 0.105118 0.620725  
2002-10-30 04:40:54 51°14.103 2°55.431 17.884179 0.105118 0.620725  
2002-10-30 04:41:01 51°14.117 2°55.421 17.88493 0.105118 0.620725  
2002-10-30 04:41:06 51°14.127 2°55.414 17.882928 0.105118 0.620725  
2002-10-30 04:41:10 51°14.134 2°55.409 17.885514 0.105118 0.620736  
2002-10-30 04:41:14 51°14.142 2°55.403 17.884096 0.105118 0.620736  
2002-10-30 04:41:21 51°14.156 2°55.392 17.884096 0.105118 0.620736  
2002-10-30 04:41:25 51°14.164 2°55.386 17.882094 0.105118 0.620736  
2002-10-30 04:41:31 51°14.175 2°55.376 17.882594 0.105118 0.620747  
2002-10-30 04:41:34 51°14.181 2°55.371 17.879966 0.105118 0.620747  
2002-10-30 04:41:41 51°14.194 2°55.359 17.874794 0.105118 0.620747  
2002-10-30 04:41:46 51°14.203 2°55.349 17.88201 0.105118 0.620747  
2002-10-30 04:41:51 51°14.212 2°55.339 17.88201 0.105118 0.620747  
2002-10-30 04:41:56 51°14.221 2°55.328 17.883595 0.105118 0.620747  
2002-10-30 04:42:01 51°14.229 2°55.317 17.882845 0.105118 0.620758  
2002-10-30 04:42:06 51°14.238 2°55.306 17.88689 0.105118 0.620747  
2002-10-30 04:42:10 51°14.244 2°55.296 17.886181 0.105118 0.620747  
2002-10-30 04:42:16 51°14.254 2°55.282 17.887766 0.105118 0.620747  
2002-10-30 04:42:21 51°14.261 2°55.27 17.887766 0.105118 0.620747  
2002-10-30 04:42:26 51°14.269 2°55.257 17.884847 0.105118 0.620758  
2002-10-30 04:42:30 51°14.275 2°55.246 17.884346 0.105118 0.620758  
2002-10-30 04:42:35 51°14.282 2°55.232 17.879758 0.105118 0.620769  
2002-10-30 04:42:41 51°14.291 2°55.213 17.880884 0.105118 0.620769  
2002-10-30 04:42:46 51°14.299 2°55.197 17.881718 0.105118 0.620769  
2002-10-30 04:42:51 51°14.307 2°55.179 17.881718 0.105118 0.620769  
2002-10-30 04:42:56 51°14.314 2°55.162 17.880592 0.105118 0.620758  
2002-10-30 04:43:01 51°14.322 2°55.143 17.884638 0.105118 0.620758  
2002-10-30 04:43:06 51°14.329 2°55.124 17.88468 0.105118 0.620758  
2002-10-30 04:43:10 51°14.335 2°55.109 17.886056 0.105118 0.620769  
2002-10-30 04:43:16 51°14.343 2°55.085 17.887558 0.105118 0.62078  
2002-10-30 04:43:21 51°14.351 2°55.065 17.887558 0.105118 0.62078  
2002-10-30 04:43:25 51°14.357 2°55.048 17.885597 0.105118 0.620791  
2002-10-30 04:43:30 51°14.364 2°55.027 17.882386 0.105118 0.620791  
2002-10-30 04:43:34 51°14.371 2°55.01 17.883137 0.105118 0.62078  
2002-10-30 04:43:41 51°14.384 2°54.981 17.884096 0.105118 0.620791  
2002-10-30 04:43:45 51°14.392 2°54.965 17.884471 0.105118 0.62078  
2002-10-30 04:43:50 51°14.404 2°54.945 17.884471 0.105118 0.62078  
2002-10-30 04:43:54 51°14.414 2°54.93 17.8803 0.105118 0.62078  
2002-10-30 04:44:01 51°14.434 2°54.905 17.870163 0.105118 0.620802  
2002-10-30 04:44:05 51°14.446 2°54.891 17.866283 0.105118 0.620802  
2002-10-30 04:44:11 51°14.464 2°54.872 17.877005 0.105118 0.620824  
2002-10-30 04:44:16 51°14.48 2°54.857 17.876379 0.105118 0.620856  
2002-10-30 04:44:21 51°14.496 2°54.841 17.876921 0.105118 0.620878  
2002-10-30 04:44:25 51°14.508 2°54.828 17.876921 0.105118 0.620878  
2002-10-30 04:44:30 51°14.523 2°54.812 17.876462 0.105118 0.620889  
2002-10-30 04:44:36 51°14.542 2°54.793 17.875712 0.105118 0.620856  
2002-10-30 04:44:41 51°14.558 2°54.778 17.873167 0.105118 0.620834  
2002-10-30 04:44:50 51°14.588 2°54.753 17.874752 0.105118 0.620813  
2002-10-30 04:44:54 51°14.601 2°54.741 17.873834 0.105118 0.620813  
2002-10-30 04:45:00 51°14.62 2°54.723 17.870539 0.105118 0.620834  
2002-10-30 04:45:04 51°14.632 2°54.71 17.87325 0.105118 0.620856  
2002-10-30 04:45:10 51°14.65 2°54.689 17.869037 0.105118 0.620834  
2002-10-30 04:45:14 51°14.662 2°54.675 17.868453 0.105118 0.620824  
2002-10-30 04:45:20 51°14.679 2°54.654 17.868453 0.105118 0.620824  
2002-10-30 04:45:25 51°14.694 2°54.636 17.867702 0.105118 0.620802  
2002-10-30 04:45:30 51°14.709 2°54.618 17.8667 0.105118 0.620802  
2002-10-30 04:45:34 51°14.721 2°54.604 17.862653 0.105118 0.620802  
2002-10-30 04:45:40 51°14.74 2°54.584 17.861694 0.105118 0.620813  
2002-10-30 04:45:45 51°14.756 2°54.569 17.861694 0.105118 0.620813  
2002-10-30 04:45:49 51°14.769 2°54.558 17.862737 0.105118 0.620824  
2002-10-30 04:45:54 51°14.787 2°54.546 17.837948 0.105118 0.620856  
2002-10-30 04:45:59 51°14.804 2°54.535 17.858314 0.105118 0.6209  
2002-10-30 04:46:05 51°14.826 2°54.521 17.857271 0.105118 0.620944  
2002-10-30 04:46:10 51°14.843 2°54.51 17.858564 0.105118 0.620977  
2002-10-30 04:46:14 51°14.858 2°54.501 17.858564 0.105118 0.620977  
2002-10-30 04:46:20 51°14.88 2°54.489 17.840327 0.105118 0.620955  
2002-10-30 04:46:25 51°14.898 2°54.481 17.848424 0.105118 0.620944  
2002-10-30 04:46:30 51°14.917 2°54.474 17.850928 0.105118 0.620933  
2002-10-30 04:46:34 51°14.932 2°54.469 17.85339 0.105118 0.620922  
2002-10-30 04:46:40 51°14.955 2°54.464 17.853098 0.105118 0.620911  
2002-10-30 04:46:45 51°14.974 2°54.461 17.845419 0.105118 0.620911  
2002-10-30 04:46:50 51°14.994 2°54.459 17.845419 0.105118 0.620911  
2002-10-30 04:46:54 51°15.009 2°54.459 17.847631 0.105118 0.620911  
2002-10-30 04:47:00 51°15.032 2°54.462 17.85218 0.105118 0.620922  
2002-10-30 04:47:04 51°15.048 2°54.465 17.849175 0.105118 0.620911  
2002-10-30 04:47:10 51°15.071 2°54.47 17.849926 0.105118 0.620955  
2002-10-30 04:47:14 51°15.086 2°54.473 17.849926 0.105118 0.620955  
2002-10-30 04:47:20 51°15.109 2°54.481 17.83607 0.105118 0.620955  
2002-10-30 04:47:24 51°15.124 2°54.486 17.845962 0.105118 0.620977  
2002-10-30 04:47:30 51°15.147 2°54.496 17.839409 0.105118 0.620955  
2002-10-30 04:47:34 51°15.162 2°54.504 17.842957 0.105118 0.620933  
2002-10-30 04:47:40 51°15.184 2°54.517 17.842414 0.105118 0.620944  
2002-10-30 04:47:45 51°15.203 2°54.528 17.842414 0.105118 0.620944  
2002-10-30 04:47:50 51°15.221 2°54.539 17.843625 0.105118 0.620977  
2002-10-30 04:47:54 51°15.236 2°54.548 17.845419 0.105118 0.620966  
2002-10-30 04:48:00 51°15.259 2°54.561 17.839201 0.105118 0.620999  
2002-10-30 04:48:05 51°15.277 2°54.571 17.84062 0.105118 0.620966  
2002-10-30 04:48:10 51°15.296 2°54.582 17.841454 0.105118 0.620966  
2002-10-30 04:48:14 51°15.311 2°54.589 17.841454 0.105118 0.620966  
2002-10-30 04:48:20 51°15.333 2°54.602 17.836613 0.105118 0.620922  
2002-10-30 04:48:25 51°15.352 2°54.612 17.842957 0.105118 0.620911  
2002-10-30 04:48:30 51°15.371 2°54.624 17.834568 0.105118 0.620845  
2002-10-30 04:48:34 51°15.386 2°54.632 17.834693 0.105118 0.620856  
2002-10-30 04:48:40 51°15.408 2°54.646 17.840995 0.105118 0.620878  
2002-10-30 04:48:45 51°15.426 2°54.658 17.840995 0.105118 0.620878  
2002-10-30 04:48:50 51°15.445 2°54.67 17.840244 0.105118 0.620911  
2002-10-30 04:48:54 51°15.459 2°54.68 17.84304 0.105118 0.620966  
2002-10-30 04:49:00 51°15.482 2°54.695 17.836821 0.105118 0.621021  
2002-10-30 04:49:05 51°15.499 2°54.709 17.830978 0.105118 0.621054  
2002-10-30 04:49:09 51°15.514 2°54.719 17.838366 0.105118 0.621087  
2002-10-30 04:49:14 51°15.531 2°54.734 17.833274 0.105118 0.621098  
2002-10-30 04:49:20 51°15.553 2°54.751 17.833274 0.105118 0.621098  
2002-10-30 04:49:25 51°15.57 2°54.767 17.838074 0.105118 0.621098  
2002-10-30 04:49:30 51°15.587 2°54.783 17.821084 0.105118 0.621076  
2002-10-30 04:49:34 51°15.601 2°54.797 17.830143 0.105118 0.621054  
2002-10-30 04:49:40 51°15.62 2°54.821 17.832397 0.105118 0.621043  
2002-10-30 04:49:44 51°15.632 2°54.837 17.832397 0.105118 0.621043  
2002-10-30 04:49:50 51°15.649 2°54.864 17.835152 0.105118 0.621043  
2002-10-30 04:49:54 51°15.66 2°54.882 17.836655 0.105118 0.621054  
2002-10-30 04:50:00 51°15.677 2°54.909 17.835695 0.105118 0.621087  
2002-10-30 04:50:05 51°15.69 2°54.934 17.822169 0.105118 0.621087  
2002-10-30 04:50:09 51°15.7 2°54.954 17.809059 0.105118 0.621065  
2002-10-30 04:50:14 51°15.711 2°54.981 17.809059 0.105118 0.621065  
2002-10-30 04:50:20 51°15.724 2°55.013 17.831103 0.105118 0.621098  
2002-10-30 04:50:25 51°15.734 2°55.041 17.829141 0.105118 0.621098  
2002-10-30 04:50:30 51°15.744 2°55.068 17.831646 0.105118 0.62112  
2002-10-30 04:50:34 51°15.752 2°55.091 17.828724 0.105118 0.621109  
2002-10-30 04:50:39 51°15.762 2°55.118 17.829308 0.105118 0.621109  
2002-10-30 04:50:45 51°15.773 2°55.152 17.831771 0.105118 0.62112  
2002-10-30 04:50:50 51°15.783 2°55.18 17.831771 0.105118 0.62112  
2002-10-30 04:50:54 51°15.792 2°55.202 17.823714 0.105118 0.62112  
2002-10-30 04:50:59 51°15.802 2°55.23 17.832773 0.105118 0.621098  
2002-10-30 04:51:02 51°15.808 2°55.246 17.818245 0.105118 0.621087  
2002-10-30 04:51:09 51°15.822 2°55.285 17.83582 0.105118 0.621087  
2002-10-30 04:51:14 51°15.832 2°55.313 17.83582 0.105118 0.621087  
2002-10-30 04:51:20 51°15.845 2°55.345 17.833566 0.105118 0.62112  
2002-10-30 04:51:25 51°15.855 2°55.373 17.808057 0.105118 0.621065  
2002-10-30 04:51:30 51°15.866 2°55.4 17.823213 0.105118 0.621087  
2002-10-30 04:51:34 51°15.874 2°55.422 17.820667 0.105118 0.62078  
2002-10-30 04:51:40 51°15.888 2°55.454 17.793524 0.105014 0.619789  
2002-10-30 04:51:45 51°15.899 2°55.481 17.793524 0.105014 0.619789  
2002-10-30 04:51:50 51°15.909 2°55.509 17.823547 0.105118 0.620297  
2002-10-30 04:51:54 51°15.918 2°55.531 17.823756 0.105118 0.620341  
2002-10-30 04:52:00 51°15.931 2°55.564 17.822503 0.105118 0.620473  
2002-10-30 04:52:05 51°15.942 2°55.59 17.822044 0.105118 0.620681  
2002-10-30 04:52:10 51°15.953 2°55.618 17.828097 0.105118 0.620944  
2002-10-30 04:52:14 51°15.962 2°55.639 17.809226 0.105118 0.621186  
2002-10-30 04:52:20 51°15.974 2°55.673 17.809226 0.105118 0.621186  
2002-10-30 04:52:25 51°15.987 2°55.698 17.828431 0.105118 0.621318  
2002-10-30 04:52:30 51°15.997 2°55.726 17.812776 0.105118 0.621307  
2002-10-30 04:52:34 51°16.006 2°55.748 17.816951 0.105118 0.621274  
2002-10-30 04:52:40 51°16.02 2°55.78 17.824841 0.105014 0.620589  
2002-10-30 04:52:44 51°16.029 2°55.802 17.824841 0.105014 0.620589  
2002-10-30 04:52:50 51°16.043 2°55.834 17.821168 0.105118 0.621153  
2002-10-30 04:52:54 51°16.051 2°55.855 17.812943 0.105118 0.621087  
2002-10-30 04:53:00 51°16.065 2°55.888 17.832898 0.105118 0.621076  
2002-10-30 04:53:05 51°16.077 2°55.914 17.818997 0.105118 0.621109  
2002-10-30 04:53:10 51°16.088 2°55.941 17.820875 0.105118 0.621098  
2002-10-30 04:53:14 51°16.098 2°55.962 17.820875 0.105118 0.621098  
2002-10-30 04:53:20 51°16.111 2°55.994 17.824048 0.105118 0.62112  
2002-10-30 04:53:25 51°16.122 2°56.02 17.827596 0.105014 0.620512  
2002-10-30 04:53:30 51°16.134 2°56.047 17.826678 0.105118 0.621175  
2002-10-30 04:53:34 51°16.143 2°56.069 17.812107 0.105014 0.620523  
2002-10-30 04:53:40 51°16.157 2°56.101 17.823756 0.105014 0.620556  
2002-10-30 04:53:45 51°16.168 2°56.128 17.823756 0.105014 0.620556  
2002-10-30 04:53:50 51°16.18 2°56.154 17.834693 0.105014 0.620545  
2002-10-30 04:53:54 51°16.189 2°56.175 17.817535 0.105014 0.620567  
2002-10-30 04:54:00 51°16.203 2°56.207 17.819873 0.105014 0.620556  
2002-10-30 04:54:05 51°16.214 2°56.235 17.793399 0.105014 0.620523  
2002-10-30 04:54:09 51°16.224 2°56.255 17.825175 0.105014 0.620545  
2002-10-30 04:54:14 51°16.235 2°56.282 17.825175 0.105014 0.620545  
2002-10-30 04:54:20 51°16.25 2°56.313 17.830894 0.105014 0.620567  
2002-10-30 04:54:24 51°16.258 2°56.335 17.805301 0.105014 0.620567  
2002-10-30 04:54:30 51°16.273 2°56.366 17.826636 0.105014 0.620611  
2002-10-30 04:54:34 51°16.281 2°56.388 17.820959 0.105014 0.620611  
2002-10-30 04:54:40 51°16.296 2°56.42 17.806429 0.105014 0.620622  
2002-10-30 04:54:45 51°16.308 2°56.447 17.806429 0.105014 0.620622  
2002-10-30 04:54:50 51°16.32 2°56.473 17.825175 0.105014 0.620644  
2002-10-30 04:54:54 51°16.329 2°56.495 17.812525 0.105014 0.620622  
2002-10-30 04:55:00 51°16.344 2°56.526 17.818078 0.105014 0.620644  
2002-10-30 04:55:05 51°16.355 2°56.553 17.830059 0.105014 0.620666  
2002-10-30 04:55:09 51°16.365 2°56.574 17.795947 0.105014 0.620655  
2002-10-30 04:55:14 51°16.376 2°56.602 17.795947 0.105014 0.620655  
2002-10-30 04:55:20 51°16.39 2°56.635 17.816909 0.105014 0.620699  
2002-10-30 04:55:25 51°16.401 2°56.662 17.813527 0.105014 0.620688  
2002-10-30 04:55:30 51°16.412 2°56.69 17.808684 0.105014 0.620699  
2002-10-30 04:55:34 51°16.421 2°56.711 17.831019 0.105014 0.620743  
2002-10-30 04:55:39 51°16.431 2°56.74 17.829141 0.105014 0.620732  
2002-10-30 04:55:45 51°16.445 2°56.773 17.829141 0.105014 0.620732  
2002-10-30 04:55:50 51°16.455 2°56.8 17.818746 0.105014 0.620754  
2002-10-30 04:55:54 51°16.464 2°56.823 17.8296 0.105014 0.620743  
2002-10-30 04:56:00 51°16.477 2°56.856 17.829767 0.105014 0.620754  
2002-10-30 04:56:05 51°16.487 2°56.885 17.826261 0.105014 0.620765  
2002-10-30 04:56:10 51°16.498 2°56.912 17.829892 0.105014 0.620754  
2002-10-30 04:56:14 51°16.506 2°56.935 17.829892 0.105014 0.620754  
2002-10-30 04:56:19 51°16.517 2°56.963 17.84087 0.105014 0.620776  
2002-10-30 04:56:25 51°16.53 2°56.997 17.799455 0.105014 0.620776  
2002-10-30 04:56:29 51°16.539 2°57.018 17.832147 0.105014 0.620786  
2002-10-30 04:56:34 51°16.549 2°57.047 17.825718 0.105014 0.620776  
2002-10-30 04:56:40 51°16.563 2°57.08 17.812943 0.105014 0.620776  
2002-10-30 04:56:45 51°16.574 2°57.107 17.835319 0.105014 0.620797  
2002-10-30 04:56:50 51°16.584 2°57.136 17.835319 0.105014 0.620797  
2002-10-30 04:56:54 51°16.593 2°57.158 17.834484 0.105014 0.620808  
2002-10-30 04:57:00 51°16.606 2°57.191 17.796364 0.105014 0.620808  
2002-10-30 04:57:05 51°16.617 2°57.219 17.838616 0.105014 0.620852  
2002-10-30 04:57:10 51°16.628 2°57.246 17.824967 0.105014 0.62083  
2002-10-30 04:57:14 51°16.636 2°57.269 17.839368 0.105014 0.620874  
2002-10-30 04:57:20 51°16.65 2°57.302 17.839368 0.105014 0.620874  
2002-10-30 04:57:25 51°16.661 2°57.33 17.834401 0.105014 0.620874  
2002-10-30 04:57:30 51°16.672 2°57.358 17.829517 0.105014 0.620863  
2002-10-30 04:57:34 51°16.681 2°57.38 17.84087 0.105014 0.620885  
2002-10-30 04:57:40 51°16.694 2°57.414 17.832814 0.105014 0.620874  
2002-10-30 04:57:45 51°16.706 2°57.44 17.832814 0.105014 0.620874  
2002-10-30 04:57:50 51°16.716 2°57.468 17.832439 0.105014 0.620874  
2002-10-30 04:57:54 51°16.726 2°57.49 17.8488 0.105014 0.620907  
2002-10-30 04:58:00 51°16.74 2°57.523 17.847589 0.105014 0.620929  
2002-10-30 04:58:05 51°16.751 2°57.55 17.830894 0.105014 0.620907  
2002-10-30 04:58:10 51°16.762 2°57.577 17.846713 0.105014 0.620929  
2002-10-30 04:58:14 51°16.771 2°57.6 17.842748 0.105014 0.620918  
2002-10-30 04:58:20 51°16.784 2°57.633 17.842748 0.105014 0.620918  
2002-10-30 04:58:25 51°16.795 2°57.661 17.840995 0.105014 0.620918  
2002-10-30 04:58:30 51°16.806 2°57.688 17.833274 0.105014 0.62094  
2002-10-30 04:58:34 51°16.814 2°57.711 17.846254 0.105014 0.620929  
2002-10-30 04:58:40 51°16.827 2°57.744 17.833941 0.105014 0.620951  
2002-10-30 04:58:45 51°16.838 2°57.772 17.850803 0.105014 0.620973  
2002-10-30 04:58:50 51°16.85 2°57.799 17.850803 0.105014 0.620973  
2002-10-30 04:58:54 51°16.858 2°57.823 17.833107 0.105014 0.620951  
2002-10-30 04:59:00 51°16.872 2°57.855 17.851053 0.105014 0.620973  
2002-10-30 04:59:05 51°16.882 2°57.884 17.850678 0.105014 0.620973  
2002-10-30 04:59:10 51°16.894 2°57.911 17.833274 0.105014 0.620984  
2002-10-30 04:59:14 51°16.903 2°57.933 17.85556 0.105014 0.621006  
2002-10-30 04:59:20 51°16.917 2°57.966 17.85556 0.105014 0.621006  
2002-10-30 04:59:25 51°16.928 2°57.994 17.853682 0.105014 0.620995  
2002-10-30 04:59:30 51°16.94 2°58.021 17.85314 0.105014 0.621017  
2002-10-30 04:59:34 51°16.947 2°58.045 17.846379 0.105014 0.620995  
2002-10-30 04:59:40 51°16.961 2°58.077 17.848633 0.105014 0.621017  
2002-10-30 04:59:45 51°16.972 2°58.105 17.848633 0.105014 0.621017  
2002-10-30 04:59:49 51°16.981 2°58.127 17.857521 0.105014 0.621028  
2002-10-30 04:59:54 51°16.993 2°58.155 17.859607 0.105014 0.621039  
2002-10-30 05:00:00 51°17.006 2°58.188 17.853307 0.10491 0.620409  
2002-10-30 05:00:05 51°17.017 2°58.215 17.862737 0.10491 0.62042  
2002-10-30 05:00:10 51°17.028 2°58.244 17.863655 0.10491 0.62042  
2002-10-30 05:00:14 51°17.037 2°58.266 17.865657 0.10491 0.620442  
2002-10-30 05:00:20 51°17.049 2°58.299 17.865657 0.10491 0.620442  
2002-10-30 05:00:25 51°17.06 2°58.327 17.864531 0.105014 0.621072  
2002-10-30 05:00:30 51°17.071 2°58.354 17.855101 0.10491 0.620453  
2002-10-30 05:00:34 51°17.08 2°58.376 17.867994 0.10491 0.620453  
2002-10-30 05:00:39 51°17.091 2°58.404 17.865532 0.10491 0.620486  
2002-10-30 05:00:45 51°17.104 2°58.437 17.865532 0.10491 0.620486  
2002-10-30 05:00:50 51°17.116 2°58.464 17.863655 0.10491 0.620486  
2002-10-30 05:00:54 51°17.123 2°58.487 17.8339 0.10491 0.620475  
2002-10-30 05:01:00 51°17.137 2°58.52 17.865657 0.105014 0.621138  
2002-10-30 05:01:05 51°17.146 2°58.549 17.864114 0.10491 0.620519  
2002-10-30 05:01:10 51°17.157 2°58.576 17.847589 0.10491 0.620541  
2002-10-30 05:01:14 51°17.165 2°58.599 17.847589 0.10491 0.620541  
2002-10-30 05:01:20 51°17.178 2°58.632 17.868953 0.10491 0.620607  
2002-10-30 05:01:25 51°17.189 2°58.66 17.858481 0.10491 0.620563  
2002-10-30 05:01:30 51°17.199 2°58.688 17.870539 0.10491 0.620574  
2002-10-30 05:01:34 51°17.208 2°58.71 17.866492 0.10491 0.620563  
2002-10-30 05:01:40 51°17.221 2°58.743 17.866659 0.10491 0.620541  
2002-10-30 05:01:44 51°17.23 2°58.764 17.866659 0.10491 0.620541  
2002-10-30 05:01:50 51°17.244 2°58.797 17.87129 0.10491 0.620541  
2002-10-30 05:01:54 51°17.252 2°58.819 17.867702 0.10491 0.62053  
2002-10-30 05:02:00 51°17.267 2°58.851 17.877672 0.10491 0.620563  
2002-10-30 05:02:05 51°17.278 2°58.878 17.870831 0.10491 0.620552  
2002-10-30 05:02:10 51°17.289 2°58.906 17.872791 0.10491 0.620574  
2002-10-30 05:02:14 51°17.298 2°58.927 17.872791 0.10491 0.620574  
2002-10-30 05:02:20 51°17.31 2°58.962 17.864155 0.10491 0.620585  
2002-10-30 05:02:25 51°17.322 2°58.988 17.881093 0.10491 0.620651  
2002-10-30 05:02:30 51°17.332 2°59.016 17.862069 0.10491 0.620629  
2002-10-30 05:02:34 51°17.342 2°59.038 17.880801 0.10491 0.620662  
2002-10-30 05:02:40 51°17.355 2°59.071 17.870163 0.10491 0.620651  
2002-10-30 05:02:45 51°17.365 2°59.099 17.870163 0.10491 0.620651  
2002-10-30 05:02:50 51°17.377 2°59.126 17.879925 0.10491 0.620662  
2002-10-30 05:02:55 51°17.387 2°59.154 17.875503 0.10491 0.620673  
2002-10-30 05:03:00 51°17.398 2°59.182 17.885139 0.10491 0.620662  
2002-10-30 05:03:05 51°17.409 2°59.21 17.884722 0.10491 0.620673  
2002-10-30 05:03:10 51°17.42 2°59.238 17.874752 0.10491 0.620662  
2002-10-30 05:03:14 51°17.428 2°59.26 17.874752 0.10491 0.620662  
2002-10-30 05:03:20 51°17.442 2°59.294 17.888434 0.10491 0.620695  
2002-10-30 05:03:25 51°17.452 2°59.322 17.886974 0.10491 0.620695  
2002-10-30 05:03:30 51°17.463 2°59.349 17.877881 0.10491 0.620684  
2002-10-30 05:03:34 51°17.472 2°59.371 17.893689 0.10491 0.620717  
2002-10-30 05:03:38 51°17.48 2°59.393 17.877756 0.10491 0.620728  
2002-10-30 05:03:45 51°17.496 2°59.433 17.877756 0.10491 0.620728  
2002-10-30 05:03:50 51°17.507 2°59.46 17.894606 0.10491 0.62075  
2002-10-30 05:03:54 51°17.515 2°59.483 17.884555 0.10491 0.62075  
2002-10-30 05:03:59 51°17.526 2°59.511 17.895941 0.10491 0.620761  
2002-10-30 05:04:05 51°17.539 2°59.544 17.896483 0.10491 0.62075  
2002-10-30 05:04:10 51°17.55 2°59.572 17.899319 0.10491 0.620772  
2002-10-30 05:04:14 51°17.558 2°59.595 17.899319 0.10491 0.620772  
2002-10-30 05:04:20 51°17.572 2°59.629 17.895273 0.10491 0.620772  
2002-10-30 05:04:25 51°17.582 2°59.658 17.890936 0.10491 0.620783  
2002-10-30 05:04:29 51°17.591 2°59.68 17.901862 0.10491 0.620794  
2002-10-30 05:04:34 51°17.601 2°59.709 17.900945 0.10491 0.620794  
2002-10-30 05:04:38 51°17.61 2°59.731 17.901862 0.10491 0.620805  
2002-10-30 05:04:45 51°17.625 2°59.771 17.901862 0.10491 0.620805  
2002-10-30 05:04:50 51°17.635 2°59.799 17.8969 0.10491 0.620827  
2002-10-30 05:04:54 51°17.644 2°59.821 17.901654 0.10491 0.620827  
2002-10-30 05:05:00 51°17.656 2°59.855 17.899902 0.10491 0.620816  
2002-10-30 05:05:05 51°17.667 2°59.883 17.900736 0.10491 0.620849  
2002-10-30 05:05:10 51°17.677 2°59.911 17.908451 0.10491 0.620871  
2002-10-30 05:05:14 51°17.686 2°59.933 17.908451 0.10491 0.620871  
2002-10-30 05:05:20 51°17.699 2°59.967 17.898485 0.10491 0.620849  
2002-10-30 05:05:25 51°17.709 2°59.996 17.895649 0.104806 0.620251  
2002-10-30 05:05:30 51°17.72 3°0.023 17.910035 0.104806 0.620273  
2002-10-30 05:05:34 51°17.729 3°0.046 17.901279 0.104806 0.620251  
2002-10-30 05:05:40 51°17.742 3°0.08 17.90253 0.104806 0.620262  
2002-10-30 05:05:45 51°17.752 3°0.108 17.91016 0.10491 0.620904  
2002-10-30 05:05:50 51°17.762 3°0.137 17.91016 0.10491 0.620904  
2002-10-30 05:05:54 51°17.77 3°0.16 17.913662 0.10491 0.620893  
2002-10-30 05:06:00 51°17.783 3°0.194 17.904198 0.104806 0.620251  
2002-10-30 05:06:05 51°17.794 3°0.222 17.919082 0.104806 0.620306  
2002-10-30 05:06:10 51°17.804 3°0.25 17.91016 0.104806 0.620273  
2002-10-30 05:06:14 51°17.813 3°0.272 17.91016 0.104806 0.620273  
2002-10-30 05:06:18 51°17.822 3°0.295 17.913996 0.104806 0.620317  
2002-10-30 05:06:30 51°17.847 3°0.362 17.918749 0.104806 0.620306  
2002-10-30 05:06:34 51°17.856 3°0.384 17.919541 0.104806 0.620317  
2002-10-30 05:06:40 51°17.868 3°0.418 17.918457 0.104806 0.620317  
2002-10-30 05:06:45 51°17.88 3°0.445 17.907492 0.104806 0.620317  
2002-10-30 05:06:50 51°17.889 3°0.474 17.907492 0.104806 0.620317  
2002-10-30 05:06:54 51°17.898 3°0.496 17.925085 0.104806 0.620328  
2002-10-30 05:07:00 51°17.91 3°0.53 17.915122 0.104806 0.620317  
2002-10-30 05:07:05 51°17.921 3°0.559 17.924127 0.104806 0.620339  
2002-10-30 05:07:10 51°17.932 3°0.586 17.918374 0.104806 0.62035  
2002-10-30 05:07:14 51°17.939 3°0.609 17.918374 0.104806 0.62035  
2002-10-30 05:07:20 51°17.952 3°0.643 17.927503 0.104806 0.620361  
2002-10-30 05:07:25 51°17.963 3°0.671 17.923835 0.104806 0.620383  
2002-10-30 05:07:30 51°17.974 3°0.699 17.928045 0.104806 0.620383  
2002-10-30 05:07:34 51°17.983 3°0.721 17.916247 0.104806 0.620394  
2002-10-30 05:07:40 51°17.995 3°0.755 17.930838 0.104806 0.620383  
2002-10-30 05:07:45 51°18.006 3°0.783 17.930838 0.104806 0.620383  
2002-10-30 05:07:50 51°18.017 3°0.811 17.927086 0.104806 0.620405  
2002-10-30 05:07:54 51°18.025 3°0.833 17.931213 0.104806 0.620405  
2002-10-30 05:08:00 51°18.037 3°0.866 17.92175 0.104806 0.620394  
2002-10-30 05:08:05 51°18.048 3°0.894 17.93809 0.104806 0.620427  
2002-10-30 05:08:10 51°18.059 3°0.923 17.923126 0.104806 0.620427  
2002-10-30 05:08:14 51°18.067 3°0.946 17.923126 0.104806 0.620427  
2002-10-30 05:08:20 51°18.081 3°0.979 17.937673 0.104806 0.620449  
2002-10-30 05:08:25 51°18.091 3°1.007 17.929671 0.104806 0.620416  
2002-10-30 05:08:30 51°18.101 3°1.036 17.936006 0.104806 0.620449  
2002-10-30 05:08:34 51°18.109 3°1.059 17.940716 0.104806 0.62046  
2002-10-30 05:08:40 51°18.121 3°1.093 17.939549 0.104806 0.620471  
2002-10-30 05:08:45 51°18.132 3°1.121 17.939549 0.104806 0.620471  
2002-10-30 05:08:50 51°18.142 3°1.149 17.934714 0.104806 0.620482  
2002-10-30 05:08:54 51°18.151 3°1.171 17.946342 0.104806 0.620493  
2002-10-30 05:09:00 51°18.163 3°1.205 17.94305 0.104806 0.620504  
2002-10-30 05:09:05 51°18.174 3°1.233 17.935048 0.104806 0.620504  
2002-10-30 05:09:09 51°18.182 3°1.256 17.942383 0.104806 0.620526  
2002-10-30 05:09:14 51°18.193 3°1.284 17.940341 0.104806 0.620526  
2002-10-30 05:09:20 51°18.205 3°1.317 17.940341 0.104806 0.620526  
2002-10-30 05:09:25 51°18.215 3°1.345 17.947176 0.104806 0.620515  
2002-10-30 05:09:30 51°18.225 3°1.374 17.94255 0.104806 0.620526  
2002-10-30 05:09:34 51°18.234 3°1.396 17.951926 0.104806 0.62057  
2002-10-30 05:09:40 51°18.247 3°1.43 17.936256 0.104806 0.620537  
2002-10-30 05:09:45 51°18.257 3°1.458 17.954718 0.104806 0.62057  
2002-10-30 05:09:50 51°18.267 3°1.486 17.954718 0.104806 0.62057  
2002-10-30 05:09:54 51°18.275 3°1.509 17.955676 0.104806 0.62057  
2002-10-30 05:10:00 51°18.289 3°1.542 17.955218 0.104806 0.620581  
2002-10-30 05:10:05 51°18.299 3°1.57 17.961509 0.104806 0.620592  
2002-10-30 05:10:10 51°18.31 3°1.597 17.950718 0.104806 0.620614  
2002-10-30 05:10:14 51°18.319 3°1.62 17.950718 0.104806 0.620614  
2002-10-30 05:10:20 51°18.331 3°1.653 17.946717 0.104806 0.620614  
2002-10-30 05:10:25 51°18.342 3°1.681 17.961593 0.104806 0.620636  
2002-10-30 05:10:30 51°18.353 3°1.708 17.958135 0.104806 0.620625  
2002-10-30 05:10:34 51°18.362 3°1.73 17.963843 0.104806 0.620625  
2002-10-30 05:10:40 51°18.375 3°1.764 17.965092 0.104806 0.620647  
2002-10-30 05:10:45 51°18.386 3°1.791 17.965092 0.104806 0.620647  
2002-10-30 05:10:50 51°18.396 3°1.819 17.95851 0.104806 0.620614  
2002-10-30 05:10:54 51°18.405 3°1.841 17.965967 0.104806 0.620658  
2002-10-30 05:11:00 51°18.418 3°1.875 17.967384 0.104806 0.620669  
2002-10-30 05:11:05 51°18.428 3°1.903 17.959051 0.104806 0.620669  
2002-10-30 05:11:10 51°18.438 3°1.932 17.956885 0.104806 0.620669  
2002-10-30 05:11:14 51°18.447 3°1.954 17.958468 0.104806 0.62068  
2002-10-30 05:11:20 51°18.458 3°1.989 17.958468 0.104806 0.62068  
2002-10-30 05:11:24 51°18.467 3°2.011 17.973091 0.104806 0.620713  
2002-10-30 05:11:30 51°18.478 3°2.046 17.965634 0.104806 0.620713  
2002-10-30 05:11:34 51°18.487 3°2.069 17.959718 0.104702 0.620104  
2002-10-30 05:11:40 51°18.499 3°2.103 17.973883 0.104806 0.620757  
2002-10-30 05:11:44 51°18.507 3°2.126 17.973883 0.104806 0.620757  
2002-10-30 05:11:50 51°18.519 3°2.16 17.972633 0.104806 0.620746  
2002-10-30 05:11:54 51°18.527 3°2.182 17.972841 0.104702 0.620137  
2002-10-30 05:12:00 51°18.54 3°2.215 17.976007 0.104806 0.620779  
2002-10-30 05:12:05 51°18.55 3°2.244 17.974341 0.104702 0.620126  
2002-10-30 05:12:10 51°18.562 3°2.271 17.974507 0.104702 0.620159  
2002-10-30 05:12:14 51°18.57 3°2.293 17.975466 0.104702 0.620115  
2002-10-30 05:12:20 51°18.582 3°2.326 17.975466 0.104702 0.620115  
2002-10-30 05:12:25 51°18.592 3°2.355 17.971966 0.104702 0.620115  
2002-10-30 05:12:30 51°18.603 3°2.383 17.986045 0.104806 0.62079  
2002-10-30 05:12:34 51°18.611 3°2.406 17.975757 0.104702 0.620126  
2002-10-30 05:12:40 51°18.623 3°2.44 17.986795 0.104702 0.62017  
2002-10-30 05:12:45 51°18.634 3°2.468 17.986795 0.104702 0.62017  
2002-10-30 05:12:50 51°18.644 3°2.496 17.982463 0.104702 0.620159  
2002-10-30 05:12:54 51°18.652 3°2.519 17.982505 0.104702 0.62017  
2002-10-30 05:13:00 51°18.665 3°2.552 17.991876 0.104702 0.620214  
2002-10-30 05:13:05 51°18.675 3°2.581 17.988086 0.104702 0.620203  
2002-10-30 05:13:10 51°18.686 3°2.608 17.988503 0.104702 0.620225  
2002-10-30 05:13:14 51°18.694 3°2.631 17.988503 0.104702 0.620225  
2002-10-30 05:13:18 51°18.703 3°2.652 17.993334 0.104702 0.620269  
2002-10-30 05:13:24 51°18.716 3°2.686 17.993833 0.104702 0.620247  
2002-10-30 05:13:30 51°18.729 3°2.719 17.996457 0.104702 0.620269  
2002-10-30 05:13:34 51°18.738 3°2.741 17.993792 0.104702 0.620269  
2002-10-30 05:13:40 51°18.751 3°2.774 17.998872 0.104702 0.620247  
2002-10-30 05:13:45 51°18.762 3°2.801 17.998872 0.104702 0.620247  
2002-10-30 05:13:49 51°18.771 3°2.823 17.997081 0.104702 0.620258  
2002-10-30 05:13:54 51°18.782 3°2.85 18.000663 0.104702 0.620258  
2002-10-30 05:14:00 51°18.794 3°2.884 17.999455 0.104702 0.620258  
2002-10-30 05:14:05 51°18.805 3°2.911 18.003078 0.104702 0.620269  
2002-10-30 05:14:10 51°18.816 3°2.938 18.004952 0.104702 0.62028  
2002-10-30 05:14:14 51°18.825 3°2.961 18.006534 0.104702 0.620302  
2002-10-30 05:14:20 51°18.838 3°2.994 18.006534 0.104702 0.620302  
2002-10-30 05:14:25 51°18.849 3°3.021 18.001787 0.104702 0.620313  
2002-10-30 05:14:30 51°18.859 3°3.049 17.998123 0.104702 0.620324  
2002-10-30 05:14:35 51°18.87 3°3.077 18.001704 0.104702 0.620324  
2002-10-30 05:14:40 51°18.881 3°3.104 18.011697 0.104702 0.620346  
2002-10-30 05:14:45 51°18.891 3°3.133 18.011697 0.104702 0.620346  
2002-10-30 05:14:50 51°18.902 3°3.16 18.008699 0.104702 0.620346  
2002-10-30 05:14:54 51°18.91 3°3.183 18.013945 0.104702 0.620357  
2002-10-30 05:15:00 51°18.923 3°3.216 18.01536 0.104702 0.62039  
2002-10-30 05:15:05 51°18.933 3°3.245 18.010697 0.104702 0.620368  
2002-10-30 05:15:09 51°18.941 3°3.267 18.016401 0.104702 0.62039  
2002-10-30 05:15:14 51°18.952 3°3.296 18.016984 0.104702 0.62039  
2002-10-30 05:15:20 51°18.965 3°3.329 18.016984 0.104702 0.62039  
2002-10-30 05:15:25 51°18.974 3°3.358 17.997581 0.104702 0.620379  
2002-10-30 05:15:30 51°18.985 3°3.386 18.018982 0.104702 0.620401  
2002-10-30 05:15:34 51°18.993 3°3.409 18.018566 0.104702 0.620412  
2002-10-30 05:15:40 51°19.005 3°3.443 18.01153 0.104702 0.620434  
2002-10-30 05:15:45 51°19.014 3°3.472 18.01153 0.104702 0.620434  
2002-10-30 05:15:49 51°19.023 3°3.494 18.026433 0.104702 0.620467  
2002-10-30 05:15:54 51°19.033 3°3.523 18.014736 0.104702 0.620456  
2002-10-30 05:16:00 51°19.046 3°3.557 18.025851 0.104702 0.620456  
2002-10-30 05:16:05 51°19.057 3°3.584 18.02814 0.104702 0.6205  
2002-10-30 05:16:10 51°19.068 3°3.612 18.016651 0.104702 0.620467  
2002-10-30 05:16:15 51°19.078 3°3.64 18.026725 0.104702 0.620478  
2002-10-30 05:16:20 51°19.089 3°3.668 18.026725 0.104702 0.620478  
2002-10-30 05:16:25 51°19.1 3°3.696 18.029847 0.104702 0.6205  
2002-10-30 05:16:30 51°19.11 3°3.723 18.027474 0.104702 0.620489  
2002-10-30 05:16:34 51°19.118 3°3.746 18.036797 0.104702 0.6205  
2002-10-30 05:16:40 51°19.132 3°3.779 18.029056 0.104702 0.620522  
2002-10-30 05:16:45 51°19.143 3°3.806 18.029056 0.104702 0.620522  
2002-10-30 05:16:50 51°19.154 3°3.833 18.033801 0.104702 0.620522  
2002-10-30 05:16:54 51°19.162 3°3.856 18.03738 0.104702 0.620533  
2002-10-30 05:17:00 51°19.176 3°3.888 18.036048 0.104702 0.620544  
2002-10-30 05:17:05 51°19.187 3°3.916 18.035674 0.104702 0.620555  
2002-10-30 05:17:09 51°19.196 3°3.938 18.038795 0.104702 0.620555  
2002-10-30 05:17:14 51°19.206 3°3.966 18.038795 0.104702 0.620555  
2002-10-30 05:17:20 51°19.219 3°3.999 18.0415 0.104702 0.620588  
2002-10-30 05:17:25 51°19.23 3°4.027 18.042332 0.104702 0.620566  
2002-10-30 05:17:30 51°19.24 3°4.055 18.045037 0.104702 0.620599  
2002-10-30 05:17:34 51°19.249 3°4.076 18.037921 0.104702 0.62061  
2002-10-30 05:17:40 51°19.263 3°4.109 18.048949 0.104702 0.620632  
2002-10-30 05:17:45 51°19.274 3°4.137 18.048949 0.104702 0.620632  
2002-10-30 05:17:50 51°19.286 3°4.163 18.042249 0.104598 0.619978  
2002-10-30 05:17:54 51°19.295 3°4.185 18.03634 0.104598 0.619989  
2002-10-30 05:18:00 51°19.308 3°4.217 18.050281 0.104702 0.620632  
2002-10-30 05:18:05 51°19.32 3°4.244 18.04587 0.104702 0.620654  
2002-10-30 05:18:10 51°19.331 3°4.271 18.045329 0.104598 0.620011  
2002-10-30 05:18:13 51°19.337 3°4.288 18.045329 0.104598 0.620011  
2002-10-30 05:18:18 51°19.35 3°4.314 18.048991 0.104598 0.620033  
2002-10-30 05:18:24 51°19.362 3°4.347 18.049656 0.104598 0.620011  
2002-10-30 05:18:30 51°19.376 3°4.38 18.040626 0.104598 0.620022  
2002-10-30 05:18:35 51°19.387 3°4.407 18.056147 0.104598 0.620033  
2002-10-30 05:18:40 51°19.397 3°4.435 18.05698 0.104702 0.620687  
2002-10-30 05:18:45 51°19.409 3°4.461 18.047243 0.104598 0.620077  
2002-10-30 05:18:50 51°19.42 3°4.489 18.047243 0.104598 0.620077  
2002-10-30 05:18:55 51°19.431 3°4.515 18.055107 0.104598 0.620066  
2002-10-30 05:19:00 51°19.443 3°4.542 18.058561 0.104598 0.620088  
2002-10-30 05:19:05 51°19.455 3°4.569 18.059393 0.104702 0.620731  
2002-10-30 05:19:10 51°19.467 3°4.595 18.065384 0.104598 0.620099  
2002-10-30 05:19:14 51°19.476 3°4.616 18.060807 0.104598 0.620088  
2002-10-30 05:19:20 51°19.491 3°4.648 18.060807 0.104598 0.620088  
2002-10-30 05:19:24 51°19.501 3°4.669 18.064427 0.104598 0.62011  
2002-10-30 05:19:29 51°19.513 3°4.695 18.062139 0.104598 0.620099  
2002-10-30 05:19:34 51°19.525 3°4.722 18.065675 0.104598 0.620088  
2002-10-30 05:19:38 51°19.533 3°4.744 18.068004 0.104598 0.620099  
2002-10-30 05:19:45 51°19.549 3°4.782 18.068004 0.104598 0.620099  
2002-10-30 05:19:50 51°19.561 3°4.81 18.071832 0.104598 0.620121  
2002-10-30 05:19:54 51°19.57 3°4.831 18.067588 0.104598 0.620143  
2002-10-30 05:20:00 51°19.584 3°4.863 18.074244 0.104598 0.620143  
2002-10-30 05:20:05 51°19.595 3°4.891 18.075284 0.104598 0.620165  
2002-10-30 05:20:10 51°19.606 3°4.917 18.075617 0.104598 0.620176  
2002-10-30 05:20:14 51°19.615 3°4.939 18.075617 0.104598 0.620176  
2002-10-30 05:20:20 51°19.629 3°4.971 18.080483 0.104598 0.620209  
2002-10-30 05:20:25 51°19.64 3°4.999 18.075076 0.104598 0.620198  
2002-10-30 05:20:30 51°19.652 3°5.026 18.07491 0.104598 0.620187  
2002-10-30 05:20:34 51°19.661 3°5.048 18.080858 0.104598 0.620209  
2002-10-30 05:20:40 51°19.674 3°5.08 18.080691 0.104598 0.620198  
2002-10-30 05:20:45 51°19.686 3°5.107 18.080691 0.104598 0.620198  
2002-10-30 05:20:50 51°19.696 3°5.135 18.082937 0.104598 0.620221  
2002-10-30 05:20:54 51°19.706 3°5.156 18.086722 0.104598 0.620243  
2002-10-30 05:20:58 51°19.714 3°5.178 18.071083 0.104598 0.620209  
2002-10-30 05:21:05 51°19.73 3°5.217 18.088801 0.104598 0.620265  
2002-10-30 05:21:10 51°19.74 3°5.245 18.089467 0.104598 0.620276  
2002-10-30 05:21:14 51°19.749 3°5.267 18.083021 0.104598 0.620276  
2002-10-30 05:21:20 51°19.761 3°5.301 18.083021 0.104598 0.620276  
2002-10-30 05:21:25 51°19.773 3°5.328 18.092711 0.104598 0.620287  
2002-10-30 05:21:30 51°19.782 3°5.357 18.087845 0.104598 0.620265  
2002-10-30 05:21:35 51°19.793 3°5.384 18.089051 0.104598 0.620309  
2002-10-30 05:21:40 51°19.803 3°5.413 18.091796 0.104598 0.620287  
2002-10-30 05:21:45 51°19.814 3°5.44 18.096994 0.104598 0.620287  
2002-10-30 05:21:50 51°19.824 3°5.468 18.096994 0.104598 0.620287  
2002-10-30 05:21:54 51°19.832 3°5.491 18.100944 0.104598 0.620309  
2002-10-30 05:22:00 51°19.845 3°5.524 18.102524 0.104598 0.62032  
2002-10-30 05:22:05 51°19.856 3°5.552 18.103647 0.104598 0.620331  
2002-10-30 05:22:09 51°19.864 3°5.574 18.098116 0.104598 0.620331  
2002-10-30 05:22:14 51°19.875 3°5.602 18.103979 0.104598 0.620353  
2002-10-30 05:22:20 51°19.888 3°5.635 18.103979 0.104598 0.620353  
2002-10-30 05:22:25 51°19.899 3°5.663 18.099447 0.104598 0.620375  
2002-10-30 05:22:30 51°19.909 3°5.691 18.103522 0.104598 0.620375  
2002-10-30 05:22:34 51°19.917 3°5.713 18.090215 0.104598 0.620353  
2002-10-30 05:22:40 51°19.931 3°5.746 18.10215 0.104598 0.620408  
2002-10-30 05:22:45 51°19.941 3°5.775 18.107056 0.104598 0.620408  
2002-10-30 05:22:50 51°19.952 3°5.802 18.107056 0.104598 0.620408  
2002-10-30 05:22:54 51°19.96 3°5.825 18.101318 0.104598 0.620408  
2002-10-30 05:23:00 51°19.974 3°5.858 18.113874 0.104598 0.620419  
2002-10-30 05:23:04 51°19.983 3°5.879 18.109966 0.104598 0.620441  
2002-10-30 05:23:10 51°19.998 3°5.91 18.115288 0.104598 0.62043  
2002-10-30 05:23:15 51°20.01 3°5.937 18.115288 0.104598 0.62043  
2002-10-30 05:23:20 51°20.024 3°5.961 18.119195 0.104598 0.620441  
2002-10-30 05:23:25 51°20.038 3°5.986 18.119944 0.104598 0.620452  
2002-10-30 05:23:30 51°20.052 3°6.01 18.116951 0.104598 0.620441  
2002-10-30 05:23:34 51°20.064 3°6.028 18.119819 0.104598 0.62043  
2002-10-30 05:23:40 51°20.082 3°6.055 18.125846 0.104598 0.620485  
2002-10-30 05:23:45 51°20.097 3°6.077 18.107929 0.104598 0.620452  
2002-10-30 05:23:50 51°20.113 3°6.098 18.107929 0.104598 0.620452  
2002-10-30 05:23:54 51°20.125 3°6.117 18.111754 0.104598 0.620474  
2002-10-30 05:24:00 51°20.145 3°6.14 18.123477 0.104494 0.619897  
2002-10-30 05:24:05 51°20.159 3°6.162 18.119653 0.104598 0.620518  
2002-10-30 05:24:10 51°20.176 3°6.182 18.117533 0.104598 0.620529  
2002-10-30 05:24:14 51°20.188 3°6.199 18.122937 0.104598 0.620562  
2002-10-30 05:24:20 51°20.207 3°6.224 18.122937 0.104598 0.620562  
2002-10-30 05:24:25 51°20.222 3°6.246 18.123851 0.104494 0.619919  
2002-10-30 05:24:30 51°20.238 3°6.266 18.125555 0.104494 0.619941  
2002-10-30 05:24:34 51°20.25 3°6.285 18.127592 0.104598 0.620562  
2002-10-30 05:24:40 51°20.269 3°6.309 18.109758 0.104598 0.620562  
2002-10-30 05:24:45 51°20.283 3°6.333 18.129629 0.104598 0.620551  
2002-10-30 05:24:50 51°20.298 3°6.354 18.129629 0.104598 0.620551  
2002-10-30 05:24:54 51°20.31 3°6.374 18.118655 0.104494 0.619886  
2002-10-30 05:25:00 51°20.327 3°6.401 18.116867 0.104494 0.619886  
2002-10-30 05:25:05 51°20.341 3°6.424 18.133452 0.104494 0.619908  
2002-10-30 05:25:10 51°20.356 3°6.447 18.132455 0.104494 0.619941  
2002-10-30 05:25:14 51°20.368 3°6.465 18.132455 0.104494 0.619941  
2002-10-30 05:25:20 51°20.385 3°6.492 18.132746 0.104494 0.619952  
2002-10-30 05:25:25 51°20.4 3°6.514 18.137858 0.104494 0.619963  
2002-10-30 05:25:30 51°20.415 3°6.536 18.14139 0.104494 0.620007  
2002-10-30 05:25:34 51°20.427 3°6.554 18.125056 0.104494 0.619996  
2002-10-30 05:25:40 51°20.446 3°6.579 18.132704 0.104494 0.619996  
2002-10-30 05:25:45 51°20.46 3°6.602 18.132704 0.104494 0.619996  
2002-10-30 05:25:50 51°20.476 3°6.623 18.143426 0.104494 0.620029  
2002-10-30 05:25:54 51°20.487 3°6.642 18.141598 0.104494 0.620018  
2002-10-30 05:26:00 51°20.506 3°6.667 18.145005 0.104494 0.620062  
2002-10-30 05:26:05 51°20.521 3°6.69 18.143551 0.104494 0.620029  
2002-10-30 05:26:09 51°20.533 3°6.705 18.139229 0.104494 0.620051  
2002-10-30 05:26:14 51°20.548 3°6.729 18.152443 0.104494 0.620062  
2002-10-30 05:26:20 51°20.567 3°6.754 18.152443 0.104494 0.620062  
2002-10-30 05:26:25 51°20.582 3°6.776 18.144714 0.104494 0.620051  
2002-10-30 05:26:30 51°20.596 3°6.798 18.147041 0.104494 0.620062  
2002-10-30 05:26:34 51°20.608 3°6.816 18.14808 0.104494 0.620051  
2002-10-30 05:26:40 51°20.626 3°6.843 18.156598 0.104494 0.620084  
2002-10-30 05:26:45 51°20.642 3°6.865 18.14995 0.104494 0.620084  
2002-10-30 05:26:49 51°20.654 3°6.882 18.14995 0.104494 0.620084  
2002-10-30 05:26:54 51°20.669 3°6.904 18.156722 0.104494 0.620106  
2002-10-30 05:27:00 51°20.687 3°6.93 18.158592 0.104494 0.620106  
2002-10-30 05:27:05 51°20.703 3°6.952 18.158758 0.104494 0.620106  
2002-10-30 05:27:10 51°20.718 3°6.973 18.155102 0.104494 0.620106  
2002-10-30 05:27:14 51°20.731 3°6.99 18.163785 0.104494 0.620128  
2002-10-30 05:27:20 51°20.749 3°7.016 18.163785 0.104494 0.620128  
2002-10-30 05:27:25 51°20.764 3°7.038 18.164034 0.104494 0.620128  
2002-10-30 05:27:30 51°20.78 3°7.059 18.165821 0.104494 0.620161  
2002-10-30 05:27:34 51°20.792 3°7.077 18.164076 0.104494 0.620139  
2002-10-30 05:27:40 51°20.81 3°7.103 18.161625 0.104494 0.620184  
2002-10-30 05:27:45 51°20.826 3°7.125 18.168812 0.104494 0.620195  
2002-10-30 05:27:49 51°20.838 3°7.142 18.168812 0.104494 0.620195  
2002-10-30 05:27:54 51°20.854 3°7.163 18.170889 0.104494 0.620217  
2002-10-30 05:28:00 51°20.873 3°7.188 18.168729 0.104494 0.620228  
2002-10-30 05:28:05 51°20.888 3°7.21 18.162248 0.104494 0.620195  
2002-10-30 05:28:10 51°20.904 3°7.229 18.164325 0.104494 0.620206  
2002-10-30 05:28:14 51°20.916 3°7.248 18.171055 0.104494 0.620261  
2002-10-30 05:28:20 51°20.936 3°7.272 18.171055 0.104494 0.620261  
2002-10-30 05:28:25 51°20.951 3°7.295 18.163619 0.104494 0.620217  
2002-10-30 05:28:29 51°20.963 3°7.312 18.159714 0.104494 0.62025  
2002-10-30 05:28:34 51°20.978 3°7.335 18.175956 0.104494 0.620272  
2002-10-30 05:28:40 51°20.996 3°7.362 18.170099 0.104494 0.62025  
2002-10-30 05:28:45 51°21.011 3°7.384 18.178573 0.104494 0.620283  
2002-10-30 05:28:50 51°21.025 3°7.407 18.178573 0.104494 0.620283  
2002-10-30 05:28:54 51°21.038 3°7.424 18.180442 0.104494 0.620294  
2002-10-30 05:29:00 51°21.055 3°7.452 18.172259 0.104494 0.620283  
2002-10-30 05:29:05 51°21.071 3°7.473 18.178074 0.104494 0.620305  
2002-10-30 05:29:10 51°21.085 3°7.497 18.184346 0.104494 0.620338  
2002-10-30 05:29:14 51°21.098 3°7.513 18.182352 0.104494 0.620316  
2002-10-30 05:29:20 51°21.116 3°7.541 18.182352 0.104494 0.620316  
2002-10-30 05:29:24 51°21.128 3°7.559 18.184221 0.104494 0.62036  
2002-10-30 05:29:29 51°21.143 3°7.581 18.188333 0.104494 0.620338  
2002-10-30 05:29:34 51°21.159 3°7.602 18.194811 0.104494 0.620393  
2002-10-30 05:29:40 51°21.177 3°7.628 18.186256 0.104494 0.620371  
2002-10-30 05:29:45 51°21.193 3°7.649 18.186256 0.104494 0.620371  
2002-10-30 05:29:50 51°21.209 3°7.671 18.195101 0.104494 0.620393  
2002-10-30 05:29:54 51°21.221 3°7.689 18.195558 0.104494 0.620382  
2002-10-30 05:30:00 51°21.239 3°7.716 18.177161 0.104494 0.620371  
2002-10-30 05:30:05 51°21.255 3°7.738 18.196596 0.104494 0.620393  
2002-10-30 05:30:10 51°21.269 3°7.761 18.189994 0.104494 0.620382  
2002-10-30 05:30:14 51°21.281 3°7.779 18.193689 0.104494 0.620415  
2002-10-30 05:30:20 51°21.3 3°7.807 18.193689 0.104494 0.620415  
2002-10-30 05:30:25 51°21.315 3°7.83 18.193067 0.104494 0.620415  
2002-10-30 05:30:30 51°21.329 3°7.853 18.191572 0.104494 0.620415  
2002-10-30 05:30:34 51°21.341 3°7.871 18.203945 0.10439 0.619805  
2002-10-30 05:30:38 51°21.353 3°7.889 18.204485 0.10439 0.619805  
2002-10-30 05:30:45 51°21.374 3°7.922 18.204402 0.104494 0.620482  
2002-10-30 05:30:50 51°21.389 3°7.944 18.204402 0.104494 0.620482  
2002-10-30 05:30:54 51°21.401 3°7.964 18.204402 0.10439 0.619816  
2002-10-30 05:31:00 51°21.419 3°7.99 18.205772 0.104494 0.620493  
2002-10-30 05:31:05 51°21.434 3°8.013 18.206519 0.10439 0.619838  
2002-10-30 05:31:10 51°21.449 3°8.036 18.213577 0.10439 0.61986  
2002-10-30 05:31:14 51°21.461 3°8.054 18.213577 0.10439 0.61986  
2002-10-30 05:31:20 51°21.479 3°8.082 18.215902 0.10439 0.619882  
2002-10-30 05:31:25 51°21.494 3°8.104 18.208844 0.10439 0.619871  
2002-10-30 05:31:30 51°21.509 3°8.127 18.210339 0.10439 0.619882  
2002-10-30 05:31:34 51°21.522 3°8.144 18.213286 0.10439 0.619882  
2002-10-30 05:31:40 51°21.539 3°8.173 18.218683 0.10439 0.619915  
2002-10-30 05:31:45 51°21.555 3°8.195 18.216192 0.10439 0.619904  
2002-10-30 05:31:50 51°21.569 3°8.218 18.216192 0.10439 0.619904  
2002-10-30 05:31:54 51°21.582 3°8.236 18.219721 0.10439 0.619937  
2002-10-30 05:31:58 51°21.593 3°8.255 18.220426 0.10439 0.619926  
2002-10-30 05:32:05 51°21.614 3°8.287 18.217604 0.10439 0.619948  
2002-10-30 05:32:10 51°21.629 3°8.308 18.221049 0.10439 0.61997  
2002-10-30 05:32:14 51°21.641 3°8.327 18.221049 0.10439 0.61997  
2002-10-30 05:32:20 51°21.659 3°8.354 18.223456 0.10439 0.619959  
2002-10-30 05:32:25 51°21.674 3°8.377 18.218475 0.10439 0.619992  
2002-10-30 05:32:30 51°21.689 3°8.399 18.223415 0.10439 0.620003  
2002-10-30 05:32:34 51°21.701 3°8.418 18.230305 0.10439 0.620003  
2002-10-30 05:32:40 51°21.72 3°8.444 18.211709 0.10439 0.620003  
2002-10-30 05:32:45 51°21.733 3°8.469 18.237443 0.10439 0.620047  
2002-10-30 05:32:50 51°21.749 3°8.49 18.237443 0.10439 0.620047  
2002-10-30 05:32:54 51°21.761 3°8.509 18.215445 0.10439 0.620025  
2002-10-30 05:33:00 51°21.779 3°8.537 18.232338 0.10439 0.620047  
2002-10-30 05:33:05 51°21.794 3°8.56 18.234579 0.10439 0.620047  
2002-10-30 05:33:10 51°21.809 3°8.583 18.228686 0.10439 0.620047  
2002-10-30 05:33:14 51°21.821 3°8.602 18.237899 0.10439 0.62008  
2002-10-30 05:33:20 51°21.839 3°8.629 18.237899 0.10439 0.62008  
2002-10-30 05:33:25 51°21.855 3°8.651 18.240887 0.10439 0.62008  
2002-10-30 05:33:30 51°21.87 3°8.674 18.229641 0.10439 0.62008  
2002-10-30 05:33:34 51°21.882 3°8.693 18.242008 0.10439 0.620103  
2002-10-30 05:33:40 51°21.9 3°8.72 18.230595 0.10439 0.620103  
2002-10-30 05:33:45 51°21.916 3°8.741 18.230554 0.10439 0.620103  
2002-10-30 05:33:50 51°21.93 3°8.766 18.230554 0.10439 0.620103  
2002-10-30 05:33:54 51°21.944 3°8.782 18.247817 0.10439 0.620158  
2002-10-30 05:34:00 51°21.961 3°8.811 18.237526 0.10439 0.620103  
2002-10-30 05:34:05 51°21.976 3°8.833 18.242257 0.10439 0.620158  
2002-10-30 05:34:10 51°21.991 3°8.857 18.244414 0.10439 0.620169  
2002-10-30 05:34:15 51°22.006 3°8.88 18.246738 0.10439 0.620158  
2002-10-30 05:34:20 51°22.021 3°8.903 18.246738 0.10439 0.620158  
2002-10-30 05:34:24 51°22.034 3°8.92 18.253128 0.10439 0.620202  
2002-10-30 05:34:30 51°22.052 3°8.949 18.252422 0.10439 0.620191  
2002-10-30 05:34:34 51°22.065 3°8.966 18.254123 0.10439 0.620191  
2002-10-30 05:34:40 51°22.083 3°8.994 18.257401 0.10439 0.620213  
2002-10-30 05:34:45 51°22.098 3°9.016 18.257401 0.10439 0.620213  
2002-10-30 05:34:50 51°22.113 3°9.039 18.252298 0.10439 0.62018  
2002-10-30 05:34:54 51°22.125 3°9.058 18.256571 0.10439 0.620191  
2002-10-30 05:35:00 51°22.144 3°9.085 18.257359 0.10439 0.620213  
2002-10-30 05:35:05 51°22.157 3°9.111 18.251593 0.10439 0.62018  
2002-10-30 05:35:10 51°22.172 3°9.135 18.252339 0.10439 0.620224  
2002-10-30 05:35:14 51°22.182 3°9.157 18.252339 0.10439 0.620224  
2002-10-30 05:35:20 51°22.198 3°9.188 18.262794 0.10439 0.620224  
2002-10-30 05:35:25 51°22.209 3°9.216 18.246448 0.10439 0.620224  
2002-10-30 05:35:29 51°22.219 3°9.237 18.263582 0.10439 0.620268  
2002-10-30 05:35:34 51°22.23 3°9.265 18.26661 0.10439 0.620279  
2002-10-30 05:35:40 51°22.243 3°9.3 18.268104 0.10439 0.620301  
2002-10-30 05:35:45 51°22.254 3°9.329 18.267357 0.10439 0.620323  
2002-10-30 05:35:50 51°22.264 3°9.358 18.267357 0.10439 0.620323  
2002-10-30 05:35:54 51°22.271 3°9.382 18.266527 0.10439 0.62029  
2002-10-30 05:36:00 51°22.282 3°9.418 18.275113 0.10439 0.620323  
2002-10-30 05:36:05 51°22.29 3°9.448 18.265241 0.104286 0.619668  
2002-10-30 05:36:10 51°22.297 3°9.48 18.271878 0.10439 0.620334  
2002-10-30 05:36:14 51°22.303 3°9.505 18.262421 0.10439 0.620301  
2002-10-30 05:36:20 51°22.309 3°9.543 18.262421 0.10439 0.620301  
2002-10-30 05:36:25 51°22.316 3°9.575 18.2781 0.10439 0.620357  
2002-10-30 05:36:30 51°22.321 3°9.607 18.275694 0.10439 0.620334  
2002-10-30 05:36:34 51°22.326 3°9.633 18.279676 0.104286 0.619712  
2002-10-30 05:36:40 51°22.332 3°9.671 18.283118 0.10439 0.620379  
2002-10-30 05:36:45 51°22.338 3°9.703 18.283284 0.10439 0.620401  
2002-10-30 05:36:50 51°22.344 3°9.735 18.283284 0.10439 0.620401  
2002-10-30 05:36:54 51°22.349 3°9.761 18.281044 0.10439 0.62039  
2002-10-30 05:37:00 51°22.357 3°9.799 18.286684 0.10439 0.620423  
2002-10-30 05:37:05 51°22.363 3°9.831 18.28938 0.10439 0.620412  
2002-10-30 05:37:10 51°22.369 3°9.864 18.288758 0.104286 0.619789  
2002-10-30 05:37:14 51°22.374 3°9.889 18.288758 0.104286 0.619789  
2002-10-30 05:37:20 51°22.381 3°9.928 18.284735 0.104286 0.619789  
2002-10-30 05:37:25 51°22.388 3°9.96 18.290665 0.104286 0.619778  
2002-10-30 05:37:30 51°22.393 3°9.993 18.292987 0.104286 0.619789  
2002-10-30 05:37:34 51°22.399 3°10.018 18.295227 0.104286 0.619801  
2002-10-30 05:37:40 51°22.407 3°10.057 18.298627 0.104286 0.619812  
2002-10-30 05:37:45 51°22.413 3°10.09 18.298627 0.104286 0.619812  
2002-10-30 05:37:50 51°22.42 3°10.121 18.296595 0.104286 0.619834  
2002-10-30 05:37:54 51°22.425 3°10.147 18.296222 0.104286 0.619834  
2002-10-30 05:38:00 51°22.433 3°10.184 18.296885 0.104286 0.619856  
2002-10-30 05:38:05 51°22.439 3°10.216 18.297134 0.104286 0.619867  
2002-10-30 05:38:09 51°22.444 3°10.242 18.295973 0.104286 0.619856  
2002-10-30 05:38:14 51°22.45 3°10.275 18.30667 0.104286 0.619889  
2002-10-30 05:38:20 51°22.457 3°10.313 18.30667 0.104286 0.619889  
2002-10-30 05:38:25 51°22.463 3°10.346 18.293526 0.104286 0.619878  
2002-10-30 05:38:30 51°22.469 3°10.378 18.307872 0.104286 0.6199  
2002-10-30 05:38:34 51°22.473 3°10.404 18.304928 0.104286 0.6199  
2002-10-30 05:38:40 51°22.481 3°10.443 18.312142 0.104286 0.619933  
2002-10-30 05:38:45 51°22.487 3°10.476 18.31123 0.104286 0.619944  
2002-10-30 05:38:50 51°22.493 3°10.508 18.31123 0.104286 0.619944  
2002-10-30 05:38:54 51°22.498 3°10.534 18.304721 0.104286 0.619933  
2002-10-30 05:39:00 51°22.505 3°10.572 18.31666 0.104286 0.619933  
2002-10-30 05:39:05 51°22.511 3°10.605 18.319272 0.104286 0.619955  
2002-10-30 05:39:09 51°22.515 3°10.631 18.318401 0.104286 0.619966  
2002-10-30 05:39:14 51°22.522 3°10.663 18.307126 0.104286 0.619977  
2002-10-30 05:39:20 51°22.528 3°10.702 18.307126 0.104286 0.619977  
2002-10-30 05:39:25 51°22.535 3°10.734 18.321841 0.104286 0.619999  
2002-10-30 05:39:30 51°22.541 3°10.767 18.32093 0.104286 0.619988  
2002-10-30 05:39:34 51°22.545 3°10.793 18.324536 0.104286 0.620022  
2002-10-30 05:39:40 51°22.553 3°10.832 18.325945 0.104286 0.620044  
2002-10-30 05:39:45 51°22.559 3°10.864 18.325945 0.104286 0.620044  
2002-10-30 05:39:49 51°22.563 3°10.89 18.324245 0.104286 0.620033  
2002-10-30 05:39:54 51°22.569 3°10.923 18.329053 0.104286 0.620055  
2002-10-30 05:40:00 51°22.577 3°10.962 18.325074 0.104286 0.620044  
2002-10-30 05:40:05 51°22.582 3°10.994 18.328307 0.104286 0.620055  
2002-10-30 05:40:10 51°22.588 3°11.026 18.330255 0.104286 0.620066  
2002-10-30 05:40:14 51°22.593 3°11.052 18.333985 0.104286 0.620099  
2002-10-30 05:40:20 51°22.6 3°11.09 18.333985 0.104286 0.620099  
2002-10-30 05:40:25 51°22.606 3°11.123 18.328887 0.104286 0.620088  
2002-10-30 05:40:29 51°22.611 3°11.148 18.33614 0.104286 0.62011  
2002-10-30 05:40:34 51°22.617 3°11.181 18.33701 0.104286 0.620132  
2002-10-30 05:40:38 51°22.622 3°11.206 18.330255 0.104286 0.620121